Year,Month,Day,Hour,Minute,Value (Times are PST for windspeed in km/hr)
2015,09,18,00,00,0.00
2015,09,18,00,01,0.00
2015,09,18,00,02,0.00
2015,09,18,00,03,0.10
2015,09,18,00,04,0.20
2015,09,18,00,05,0.00
2015,09,18,00,06,0.00
2015,09,18,00,07,0.00
2015,09,18,00,08,0.00
2015,09,18,00,09,0.00
2015,09,18,00,10,0.30
2015,09,18,00,11,1.50
2015,09,18,00,12,0.00
2015,09,18,00,13,0.00
2015,09,18,00,14,0.20
2015,09,18,00,15,0.00
2015,09,18,00,16,0.00
2015,09,18,00,17,0.10
2015,09,18,00,18,0.30
2015,09,18,00,19,0.00
2015,09,18,00,20,0.00
2015,09,18,00,21,0.00
2015,09,18,00,22,0.00
2015,09,18,00,23,0.10
2015,09,18,00,24,1.90
2015,09,18,00,25,0.90
2015,09,18,00,26,1.80
2015,09,18,00,27,2.40
2015,09,18,00,28,1.70
2015,09,18,00,29,0.70
2015,09,18,00,30,1.10
2015,09,18,00,31,0.80
2015,09,18,00,32,0.00
2015,09,18,00,33,0.20
2015,09,18,00,34,0.30
2015,09,18,00,35,0.00
2015,09,18,00,36,0.10
2015,09,18,00,37,0.20
2015,09,18,00,38,0.00
2015,09,18,00,39,0.10
2015,09,18,00,40,1.90
2015,09,18,00,41,1.80
2015,09,18,00,42,1.80
2015,09,18,00,43,1.60
2015,09,18,00,44,1.20
2015,09,18,00,45,0.20
2015,09,18,00,46,0.60
2015,09,18,00,47,0.20
2015,09,18,00,48,0.30
2015,09,18,00,49,0.50
2015,09,18,00,50,0.30
2015,09,18,00,51,0.40
2015,09,18,00,52,0.80
2015,09,18,00,53,0.70
2015,09,18,00,54,0.40
2015,09,18,00,55,0.60
2015,09,18,00,56,0.90
2015,09,18,00,57,0.30
2015,09,18,00,58,1.40
2015,09,18,00,59,3.00
2015,09,18,01,00,0.60
2015,09,18,01,01,0.00
2015,09,18,01,02,0.40
2015,09,18,01,03,0.10
2015,09,18,01,04,0.00
2015,09,18,01,05,0.00
2015,09,18,01,06,0.60
2015,09,18,01,07,0.00
2015,09,18,01,08,1.00
2015,09,18,01,09,2.00
2015,09,18,01,10,2.10
2015,09,18,01,11,1.10
2015,09,18,01,12,0.00
2015,09,18,01,13,0.00
2015,09,18,01,14,0.00
2015,09,18,01,15,0.30
2015,09,18,01,16,1.00
2015,09,18,01,17,0.30
2015,09,18,01,18,0.20
2015,09,18,01,19,0.80
2015,09,18,01,20,0.70
2015,09,18,01,21,1.00
2015,09,18,01,22,0.80
2015,09,18,01,23,0.10
2015,09,18,01,24,0.30
2015,09,18,01,25,0.00
2015,09,18,01,26,0.00
2015,09,18,01,27,1.60
2015,09,18,01,28,1.50
2015,09,18,01,29,0.20
2015,09,18,01,30,0.00
2015,09,18,01,31,1.50
2015,09,18,01,32,2.70
2015,09,18,01,33,1.10
2015,09,18,01,34,2.40
2015,09,18,01,35,0.10
2015,09,18,01,36,0.70
2015,09,18,01,37,0.60
2015,09,18,01,38,1.50
2015,09,18,01,39,0.90
2015,09,18,01,40,0.20
2015,09,18,01,41,0.30
2015,09,18,01,42,1.10
2015,09,18,01,43,0.30
2015,09,18,01,44,0.20
2015,09,18,01,45,0.00
2015,09,18,01,46,1.50
2015,09,18,01,47,1.30
2015,09,18,01,48,0.80
2015,09,18,01,49,1.10
2015,09,18,01,50,0.00
2015,09,18,01,51,0.00
2015,09,18,01,52,0.20
2015,09,18,01,53,0.00
2015,09,18,01,54,0.20
2015,09,18,01,55,0.00
2015,09,18,01,56,0.00
2015,09,18,01,57,0.00
2015,09,18,01,58,1.50
2015,09,18,01,59,1.30
2015,09,18,02,00,0.00
2015,09,18,02,01,0.60
2015,09,18,02,02,1.70
2015,09,18,02,03,0.70
2015,09,18,02,04,3.20
2015,09,18,02,05,2.00
2015,09,18,02,06,2.90
2015,09,18,02,07,2.50
2015,09,18,02,08,0.40
2015,09,18,02,09,0.50
2015,09,18,02,10,1.90
2015,09,18,02,11,2.40
2015,09,18,02,12,1.30
2015,09,18,02,13,1.40
2015,09,18,02,14,1.50
2015,09,18,02,15,0.20
2015,09,18,02,16,0.00
2015,09,18,02,17,0.00
2015,09,18,02,18,0.00
2015,09,18,02,19,0.00
2015,09,18,02,20,0.00
2015,09,18,02,21,0.00
2015,09,18,02,22,0.00
2015,09,18,02,23,0.00
2015,09,18,02,24,0.80
2015,09,18,02,25,0.50
2015,09,18,02,26,0.00
2015,09,18,02,27,0.00
2015,09,18,02,28,0.00
2015,09,18,02,29,0.00
2015,09,18,02,30,0.00
2015,09,18,02,31,0.20
2015,09,18,02,32,0.60
2015,09,18,02,33,2.40
2015,09,18,02,34,2.60
2015,09,18,02,35,1.00
2015,09,18,02,36,0.70
2015,09,18,02,37,1.30
2015,09,18,02,38,1.00
2015,09,18,02,39,1.10
2015,09,18,02,40,1.60
2015,09,18,02,41,1.80
2015,09,18,02,42,1.40
2015,09,18,02,43,1.90
2015,09,18,02,44,3.30
2015,09,18,02,45,3.70
2015,09,18,02,46,1.40
2015,09,18,02,47,1.80
2015,09,18,02,48,2.80
2015,09,18,02,49,3.40
2015,09,18,02,50,3.30
2015,09,18,02,51,3.90
2015,09,18,02,52,0.30
2015,09,18,02,53,0.10
2015,09,18,02,54,0.20
2015,09,18,02,55,0.00
2015,09,18,02,56,0.00
2015,09,18,02,57,0.40
2015,09,18,02,58,1.10
2015,09,18,02,59,1.60
2015,09,18,03,00,1.80
2015,09,18,03,01,0.60
2015,09,18,03,02,0.70
2015,09,18,03,06,1.90
2015,09,18,03,07,2.00
2015,09,18,03,08,0.60
2015,09,18,03,09,1.10
2015,09,18,03,10,1.30
2015,09,18,03,11,0.20
2015,09,18,03,12,0.40
2015,09,18,03,13,1.60
2015,09,18,03,14,2.80
2015,09,18,03,15,2.80
2015,09,18,03,16,3.10
2015,09,18,03,17,1.50
2015,09,18,03,18,1.90
2015,09,18,03,19,0.70
2015,09,18,03,20,0.20
2015,09,18,03,21,3.90
2015,09,18,03,22,4.70
2015,09,18,03,23,3.30
2015,09,18,03,24,2.60
2015,09,18,03,25,0.60
2015,09,18,03,26,1.10
2015,09,18,03,27,0.60
2015,09,18,03,28,0.20
2015,09,18,03,29,0.00
2015,09,18,03,30,0.00
2015,09,18,03,31,1.10
2015,09,18,03,32,1.60
2015,09,18,03,33,1.40
2015,09,18,03,34,0.20
2015,09,18,03,35,0.00
2015,09,18,03,36,0.20
2015,09,18,03,37,3.00
2015,09,18,03,38,2.40
2015,09,18,03,39,1.60
2015,09,18,03,40,1.80
2015,09,18,03,41,1.30
2015,09,18,03,42,1.30
2015,09,18,03,43,0.50
2015,09,18,03,44,0.00
2015,09,18,03,45,0.00
2015,09,18,03,46,0.00
2015,09,18,03,47,0.00
2015,09,18,03,48,0.00
2015,09,18,03,49,0.00
2015,09,18,03,50,0.00
2015,09,18,03,51,0.00
2015,09,18,03,52,0.00
2015,09,18,03,53,0.40
2015,09,18,03,54,1.50
2015,09,18,03,55,1.60
2015,09,18,03,56,1.80
2015,09,18,03,57,1.30
2015,09,18,03,58,0.20
2015,09,18,03,59,0.00
2015,09,18,04,00,0.00
2015,09,18,04,01,0.10
2015,09,18,04,02,0.00
2015,09,18,04,03,0.00
2015,09,18,04,04,0.00
2015,09,18,04,05,0.00
2015,09,18,04,06,0.00
2015,09,18,04,07,0.00
2015,09,18,04,08,0.00
2015,09,18,04,09,0.60
2015,09,18,04,10,0.50
2015,09,18,04,11,1.20
2015,09,18,04,12,0.70
2015,09,18,04,13,0.00
2015,09,18,04,14,0.20
2015,09,18,04,15,1.50
2015,09,18,04,16,0.70
2015,09,18,04,17,0.00
2015,09,18,04,18,0.00
2015,09,18,04,19,0.60
2015,09,18,04,20,0.00
2015,09,18,04,21,0.00
2015,09,18,04,22,0.00
2015,09,18,04,23,0.00
2015,09,18,04,24,0.00
2015,09,18,04,25,0.00
2015,09,18,04,26,1.90
2015,09,18,04,27,0.80
2015,09,18,04,28,0.00
2015,09,18,04,29,0.00
2015,09,18,04,30,0.10
2015,09,18,04,31,0.10
2015,09,18,04,32,0.20
2015,09,18,04,33,1.50
2015,09,18,04,34,1.80
2015,09,18,04,35,2.00
2015,09,18,04,36,1.20
2015,09,18,04,37,1.40
2015,09,18,04,38,1.40
2015,09,18,04,39,0.00
2015,09,18,04,40,0.20
2015,09,18,04,41,2.60
2015,09,18,04,42,3.50
2015,09,18,04,43,4.30
2015,09,18,04,44,2.60
2015,09,18,04,45,0.90
2015,09,18,04,46,0.10
2015,09,18,04,47,2.20
2015,09,18,04,48,3.30
2015,09,18,04,49,0.50
2015,09,18,04,50,0.60
2015,09,18,04,51,0.10
2015,09,18,04,52,0.70
2015,09,18,04,53,1.40
2015,09,18,04,54,1.00
2015,09,18,04,55,0.20
2015,09,18,04,56,0.60
2015,09,18,04,57,0.00
2015,09,18,04,58,0.00
2015,09,18,04,59,0.00
2015,09,18,05,00,0.00
2015,09,18,05,01,0.20
2015,09,18,05,02,0.00
2015,09,18,05,03,0.80
2015,09,18,05,04,1.50
2015,09,18,05,05,2.00
2015,09,18,05,06,1.10
2015,09,18,05,07,1.30
2015,09,18,05,08,0.30
2015,09,18,05,09,0.00
2015,09,18,05,10,0.00
2015,09,18,05,11,0.00
2015,09,18,05,12,0.00
2015,09,18,05,13,0.00
2015,09,18,05,14,0.00
2015,09,18,05,15,0.00
2015,09,18,05,16,0.00
2015,09,18,05,17,0.00
2015,09,18,05,18,0.20
2015,09,18,05,19,0.20
2015,09,18,05,20,0.00
2015,09,18,05,21,0.00
2015,09,18,05,22,0.00
2015,09,18,05,23,0.00
2015,09,18,05,24,0.00
2015,09,18,05,25,1.60
2015,09,18,05,26,2.80
2015,09,18,05,27,1.20
2015,09,18,05,28,0.50
2015,09,18,05,29,2.50
2015,09,18,05,30,0.90
2015,09,18,05,31,1.40
2015,09,18,05,32,1.50
2015,09,18,05,33,2.60
2015,09,18,05,34,1.20
2015,09,18,05,35,0.30
2015,09,18,05,36,0.00
2015,09,18,05,37,0.60
2015,09,18,05,38,1.40
2015,09,18,05,39,2.00
2015,09,18,05,40,1.90
2015,09,18,05,41,1.70
2015,09,18,05,42,0.00
2015,09,18,05,43,0.20
2015,09,18,05,44,0.40
2015,09,18,05,45,2.30
2015,09,18,05,46,2.40
2015,09,18,05,47,1.90
2015,09,18,05,48,0.10
2015,09,18,05,49,0.10
2015,09,18,05,50,0.00
2015,09,18,05,51,0.40
2015,09,18,05,52,2.40
2015,09,18,05,53,3.70
2015,09,18,05,54,2.10
2015,09,18,05,55,1.10
2015,09,18,05,56,0.60
2015,09,18,05,57,1.40
2015,09,18,05,58,0.90
2015,09,18,05,59,1.70
2015,09,18,06,00,2.30
2015,09,18,06,01,3.10
2015,09,18,06,02,2.50
2015,09,18,06,03,0.90
2015,09,18,06,04,0.90
2015,09,18,06,05,5.00
2015,09,18,06,06,2.80
2015,09,18,06,07,2.10
2015,09,18,06,08,1.60
2015,09,18,06,09,2.50
2015,09,18,06,10,0.90
2015,09,18,06,11,2.00
2015,09,18,06,12,3.00
2015,09,18,06,13,1.50
2015,09,18,06,14,2.40
2015,09,18,06,15,2.50
2015,09,18,06,16,1.40
2015,09,18,06,17,2.30
2015,09,18,06,18,0.80
2015,09,18,06,19,1.90
2015,09,18,06,20,2.00
2015,09,18,06,21,2.30
2015,09,18,06,22,3.30
2015,09,18,06,23,0.60
2015,09,18,06,24,0.20
2015,09,18,06,25,0.30
2015,09,18,06,26,2.70
2015,09,18,06,27,0.60
2015,09,18,06,28,4.50
2015,09,18,06,29,2.50
2015,09,18,06,30,0.40
2015,09,18,06,31,1.80
2015,09,18,06,32,4.40
2015,09,18,06,33,1.50
2015,09,18,06,34,1.60
2015,09,18,06,35,1.70
2015,09,18,06,36,1.10
2015,09,18,06,37,0.60
2015,09,18,06,38,1.00
2015,09,18,06,39,0.00
2015,09,18,06,40,0.90
2015,09,18,06,41,0.40
2015,09,18,06,42,2.10
2015,09,18,06,43,1.50
2015,09,18,06,44,0.40
2015,09,18,06,45,1.00
2015,09,18,06,46,1.40
2015,09,18,06,47,0.20
2015,09,18,06,48,0.40
2015,09,18,06,49,4.50
2015,09,18,06,50,4.40
2015,09,18,06,51,0.70
2015,09,18,06,52,1.70
2015,09,18,06,53,0.30
2015,09,18,06,54,3.00
2015,09,18,06,55,2.00
2015,09,18,06,56,2.20
2015,09,18,06,57,2.30
2015,09,18,06,58,2.70
2015,09,18,06,59,2.10
2015,09,18,07,00,4.20
2015,09,18,07,01,5.80
2015,09,18,07,02,1.60
2015,09,18,07,03,1.80
2015,09,18,07,04,0.60
2015,09,18,07,05,1.10
2015,09,18,07,06,0.70
2015,09,18,07,07,1.10
2015,09,18,07,08,0.60
2015,09,18,07,09,0.20
2015,09,18,07,10,0.10
2015,09,18,07,11,0.50
2015,09,18,07,12,1.60
2015,09,18,07,13,0.90
2015,09,18,07,14,3.60
2015,09,18,07,15,0.50
2015,09,18,07,16,0.90
2015,09,18,07,17,1.40
2015,09,18,07,18,0.20
2015,09,18,07,19,1.80
2015,09,18,07,20,3.70
2015,09,18,07,21,1.90
2015,09,18,07,22,2.30
2015,09,18,07,23,1.20
2015,09,18,07,24,2.40
2015,09,18,07,25,3.50
2015,09,18,07,26,3.50
2015,09,18,07,27,1.90
2015,09,18,07,28,1.70
2015,09,18,07,29,0.70
2015,09,18,07,30,0.80
2015,09,18,07,31,0.50
2015,09,18,07,32,0.90
2015,09,18,07,33,0.60
2015,09,18,07,34,2.00
2015,09,18,07,35,5.20
2015,09,18,07,36,1.80
2015,09,18,07,37,0.40
2015,09,18,07,38,2.40
2015,09,18,07,39,3.60
2015,09,18,07,40,1.30
2015,09,18,07,41,1.80
2015,09,18,07,42,3.40
2015,09,18,07,43,2.20
2015,09,18,07,44,2.10
2015,09,18,07,45,3.00
2015,09,18,07,46,1.30
2015,09,18,07,47,0.70
2015,09,18,07,48,1.80
2015,09,18,07,49,1.30
2015,09,18,07,50,2.40
2015,09,18,07,51,1.30
2015,09,18,07,52,2.70
2015,09,18,07,53,3.00
2015,09,18,07,54,2.20
2015,09,18,07,55,2.10
2015,09,18,07,56,1.10
2015,09,18,07,57,0.70
2015,09,18,07,58,1.70
2015,09,18,07,59,2.70
2015,09,18,08,00,2.30
2015,09,18,08,01,1.20
2015,09,18,08,02,1.00
2015,09,18,08,03,1.90
2015,09,18,08,04,0.60
2015,09,18,08,05,3.10
2015,09,18,08,06,1.40
2015,09,18,08,07,1.90
2015,09,18,08,08,2.30
2015,09,18,08,09,2.70
2015,09,18,08,10,1.70
2015,09,18,08,11,1.80
2015,09,18,08,12,0.80
2015,09,18,08,13,1.20
2015,09,18,08,14,3.40
2015,09,18,08,15,2.20
2015,09,18,08,16,2.70
2015,09,18,08,17,3.00
2015,09,18,08,18,2.40
2015,09,18,08,19,1.10
2015,09,18,08,20,1.00
2015,09,18,08,21,3.10
2015,09,18,08,22,1.50
2015,09,18,08,23,1.40
2015,09,18,08,24,1.10
2015,09,18,08,25,4.40
2015,09,18,08,26,6.30
2015,09,18,08,27,2.70
2015,09,18,08,28,3.60
2015,09,18,08,29,0.60
2015,09,18,08,30,0.00
2015,09,18,08,31,0.40
2015,09,18,08,32,1.60
2015,09,18,08,33,2.00
2015,09,18,08,34,1.90
2015,09,18,08,35,3.80
2015,09,18,08,36,3.10
2015,09,18,08,37,7.30
2015,09,18,08,38,6.60
2015,09,18,08,39,2.70
2015,09,18,08,40,0.50
2015,09,18,08,41,3.00
2015,09,18,08,42,3.00
2015,09,18,08,43,3.90
2015,09,18,08,44,4.90
2015,09,18,08,45,2.30
2015,09,18,08,46,1.50
2015,09,18,08,47,2.60
2015,09,18,08,48,2.90
2015,09,18,08,49,2.80
2015,09,18,08,50,1.00
2015,09,18,08,51,2.10
2015,09,18,08,52,2.90
2015,09,18,08,53,3.00
2015,09,18,08,54,4.70
2015,09,18,08,55,4.70
2015,09,18,08,56,4.50
2015,09,18,08,57,5.80
2015,09,18,08,58,6.40
2015,09,18,08,59,9.10
2015,09,18,09,00,3.70
2015,09,18,09,01,4.70
2015,09,18,09,02,3.10
2015,09,18,09,03,7.30
2015,09,18,09,04,7.50
2015,09,18,09,05,9.30
2015,09,18,09,06,4.00
2015,09,18,09,07,4.50
2015,09,18,09,08,7.60
2015,09,18,09,09,3.50
2015,09,18,09,10,4.20
2015,09,18,09,11,1.90
2015,09,18,09,12,2.20
2015,09,18,09,13,0.90
2015,09,18,09,14,0.20
2015,09,18,09,15,2.40
2015,09,18,09,16,3.20
2015,09,18,09,17,3.70
2015,09,18,09,18,3.60
2015,09,18,09,19,6.10
2015,09,18,09,20,1.50
2015,09,18,09,21,0.70
2015,09,18,09,22,3.90
2015,09,18,09,23,4.50
2015,09,18,09,24,1.90
2015,09,18,09,25,2.90
2015,09,18,09,26,1.90
2015,09,18,09,27,1.50
2015,09,18,09,28,3.10
2015,09,18,09,29,5.20
2015,09,18,09,30,2.80
2015,09,18,09,31,4.70
2015,09,18,09,32,1.80
2015,09,18,09,33,1.10
2015,09,18,09,34,2.00
2015,09,18,09,35,1.40
2015,09,18,09,36,1.90
2015,09,18,09,37,1.00
2015,09,18,09,38,2.30
2015,09,18,09,39,2.20
2015,09,18,09,40,1.60
2015,09,18,09,41,1.20
2015,09,18,09,42,1.00
2015,09,18,09,43,0.10
2015,09,18,09,44,1.70
2015,09,18,09,45,4.50
2015,09,18,09,46,1.30
2015,09,18,09,47,0.40
2015,09,18,09,48,0.30
2015,09,18,09,49,1.90
2015,09,18,09,50,2.20
2015,09,18,09,51,0.10
2015,09,18,09,52,0.60
2015,09,18,09,53,0.60
2015,09,18,09,54,0.00
2015,09,18,09,55,1.50
2015,09,18,09,56,0.60
2015,09,18,09,57,0.30
2015,09,18,09,58,1.00
2015,09,18,09,59,1.60
2015,09,18,10,00,2.50
2015,09,18,10,01,3.00
2015,09,18,10,02,1.50
2015,09,18,10,03,2.40
2015,09,18,10,04,1.10
2015,09,18,10,05,0.80
2015,09,18,10,06,2.50
2015,09,18,10,07,1.20
2015,09,18,10,08,1.20
2015,09,18,10,09,3.10
2015,09,18,10,10,1.00
2015,09,18,10,11,1.80
2015,09,18,10,12,1.90
2015,09,18,10,13,2.70
2015,09,18,10,14,0.60
2015,09,18,10,15,1.90
2015,09,18,10,16,0.90
2015,09,18,10,17,0.70
2015,09,18,10,18,1.20
2015,09,18,10,19,0.50
2015,09,18,10,20,1.30
2015,09,18,10,21,3.20
2015,09,18,10,22,5.10
2015,09,18,10,23,5.70
2015,09,18,10,24,3.50
2015,09,18,10,25,2.00
2015,09,18,10,26,6.30
2015,09,18,10,27,6.30
2015,09,18,10,28,6.70
2015,09,18,10,29,3.90
2015,09,18,10,30,7.10
2015,09,18,10,31,6.00
2015,09,18,10,32,6.40
2015,09,18,10,33,4.40
2015,09,18,10,34,3.30
2015,09,18,10,35,6.20
2015,09,18,10,36,6.00
2015,09,18,10,37,2.40
2015,09,18,10,38,2.80
2015,09,18,10,39,7.20
2015,09,18,10,40,2.70
2015,09,18,10,41,5.70
2015,09,18,10,42,8.90
2015,09,18,10,43,6.70
2015,09,18,10,44,4.20
2015,09,18,10,45,3.90
2015,09,18,10,46,6.40
2015,09,18,10,47,8.90
2015,09,18,10,48,3.00
2015,09,18,10,49,5.00
2015,09,18,10,50,6.10
2015,09,18,10,51,6.40
2015,09,18,10,52,3.70
2015,09,18,10,53,2.70
2015,09,18,10,54,5.90
2015,09,18,10,55,1.60
2015,09,18,10,56,0.50
2015,09,18,10,57,1.30
2015,09,18,10,58,2.30
2015,09,18,10,59,3.40
2015,09,18,11,00,0.60
2015,09,18,11,01,2.60
2015,09,18,11,02,1.20
2015,09,18,11,03,1.50
2015,09,18,11,04,3.10
2015,09,18,11,05,2.30
2015,09,18,11,06,1.60
2015,09,18,11,07,0.90
2015,09,18,11,08,2.10
2015,09,18,11,09,1.90
2015,09,18,11,10,1.50
2015,09,18,11,11,3.70
2015,09,18,11,12,1.80
2015,09,18,11,13,2.70
2015,09,18,11,14,2.10
2015,09,18,11,15,1.60
2015,09,18,11,16,5.60
2015,09,18,11,17,4.80
2015,09,18,11,18,1.50
2015,09,18,11,19,3.80
2015,09,18,11,20,5.00
2015,09,18,11,21,5.60
2015,09,18,11,22,4.20
2015,09,18,11,23,5.10
2015,09,18,11,24,5.70
2015,09,18,11,25,3.50
2015,09,18,11,26,3.60
2015,09,18,11,27,1.60
2015,09,18,11,28,4.80
2015,09,18,11,29,4.30
2015,09,18,11,30,8.00
2015,09,18,11,31,7.50
2015,09,18,11,32,3.40
2015,09,18,11,33,5.00
2015,09,18,11,34,6.50
2015,09,18,11,35,3.10
2015,09,18,11,36,5.00
2015,09,18,11,37,4.70
2015,09,18,11,38,10.10
2015,09,18,11,39,5.00
2015,09,18,11,40,4.70
2015,09,18,11,41,4.80
2015,09,18,11,42,3.50
2015,09,18,11,43,6.50
2015,09,18,11,44,5.20
2015,09,18,11,45,4.90
2015,09,18,11,46,2.70
2015,09,18,11,47,2.20
2015,09,18,11,48,3.50
2015,09,18,11,49,5.10
2015,09,18,11,50,4.10
2015,09,18,11,51,3.70
2015,09,18,11,52,5.50
2015,09,18,11,53,1.10
2015,09,18,11,54,2.90
2015,09,18,11,55,3.00
2015,09,18,11,56,3.80
2015,09,18,11,57,4.30
2015,09,18,11,58,6.00
2015,09,18,11,59,3.20
2015,09,18,12,00,3.40
2015,09,18,12,01,5.10
2015,09,18,12,02,4.00
2015,09,18,12,03,2.80
2015,09,18,12,04,1.90
2015,09,18,12,05,2.00
2015,09,18,12,06,1.90
2015,09,18,12,07,0.50
2015,09,18,12,08,2.00
2015,09,18,12,09,2.50
2015,09,18,12,10,1.10
2015,09,18,12,11,1.10
2015,09,18,12,12,1.80
2015,09,18,12,13,0.80
2015,09,18,12,14,1.40
2015,09,18,12,15,2.40
2015,09,18,12,16,2.60
2015,09,18,12,17,2.30
2015,09,18,12,18,1.50
2015,09,18,12,19,1.00
2015,09,18,12,20,1.00
2015,09,18,12,21,1.60
2015,09,18,12,22,2.00
2015,09,18,12,23,1.00
2015,09,18,12,24,0.80
2015,09,18,12,25,1.40
2015,09,18,12,26,1.40
2015,09,18,12,27,5.40
2015,09,18,12,28,2.30
2015,09,18,12,29,2.60
2015,09,18,12,30,2.30
2015,09,18,12,31,3.40
2015,09,18,12,32,1.50
2015,09,18,12,33,3.10
2015,09,18,12,34,2.50
2015,09,18,12,35,1.90
2015,09,18,12,36,3.60
2015,09,18,12,37,3.60
2015,09,18,12,38,2.70
2015,09,18,12,39,4.00
2015,09,18,12,40,2.80
2015,09,18,12,41,2.50
2015,09,18,12,42,2.70
2015,09,18,12,43,3.30
2015,09,18,12,44,2.00
2015,09,18,12,45,2.70
2015,09,18,12,46,1.90
2015,09,18,12,47,1.30
2015,09,18,12,48,1.70
2015,09,18,12,49,1.80
2015,09,18,12,50,2.50
2015,09,18,12,51,1.90
2015,09,18,12,52,3.80
2015,09,18,12,53,3.80
2015,09,18,12,54,2.80
2015,09,18,12,55,2.30
2015,09,18,12,56,2.90
2015,09,18,12,57,6.10
2015,09,18,12,58,4.40
2015,09,18,12,59,5.30
2015,09,18,13,00,1.60
2015,09,18,13,01,2.30
2015,09,18,13,02,2.00
2015,09,18,13,03,1.40
2015,09,18,13,04,1.80
2015,09,18,13,05,1.90
2015,09,18,13,06,2.90
2015,09,18,13,07,3.30
2015,09,18,13,08,1.30
2015,09,18,13,09,2.90
2015,09,18,13,10,1.20
2015,09,18,13,11,5.50
2015,09,18,13,12,3.80
2015,09,18,13,13,1.60
2015,09,18,13,14,3.00
2015,09,18,13,15,0.90
2015,09,18,13,16,1.80
2015,09,18,13,17,1.50
2015,09,18,13,18,3.60
2015,09,18,13,19,3.30
2015,09,18,13,20,5.50
2015,09,18,13,21,4.40
2015,09,18,13,22,2.30
2015,09,18,13,23,1.80
2015,09,18,13,24,3.30
2015,09,18,13,25,1.00
2015,09,18,13,26,3.70
2015,09,18,13,27,4.00
2015,09,18,13,28,2.60
2015,09,18,13,29,1.90
2015,09,18,13,30,1.00
2015,09,18,13,31,1.90
2015,09,18,13,32,1.80
2015,09,18,13,33,1.70
2015,09,18,13,34,1.30
2015,09,18,13,35,1.30
2015,09,18,13,36,1.90
2015,09,18,13,37,2.90
2015,09,18,13,38,1.90
2015,09,18,13,39,4.30
2015,09,18,13,40,3.60
2015,09,18,13,41,6.60
2015,09,18,13,42,2.00
2015,09,18,13,43,4.30
2015,09,18,13,44,4.10
2015,09,18,13,45,5.00
2015,09,18,13,46,1.90
2015,09,18,13,47,4.10
2015,09,18,13,48,6.00
2015,09,18,13,49,3.70
2015,09,18,13,50,1.40
2015,09,18,13,51,1.30
2015,09,18,13,52,1.10
2015,09,18,13,53,2.00
2015,09,18,13,54,0.90
2015,09,18,13,55,2.30
2015,09,18,13,56,4.00
2015,09,18,13,57,1.50
2015,09,18,13,58,1.80
2015,09,18,13,59,1.80
2015,09,18,14,00,1.00
2015,09,18,14,01,0.30
2015,09,18,14,02,0.60
2015,09,18,14,03,4.30
2015,09,18,14,04,2.70
2015,09,18,14,05,3.40
2015,09,18,14,06,2.10
2015,09,18,14,07,1.90
2015,09,18,14,08,1.10
2015,09,18,14,09,1.60
2015,09,18,14,10,0.80
2015,09,18,14,11,2.70
2015,09,18,14,12,1.30
2015,09,18,14,13,1.70
2015,09,18,14,14,1.50
2015,09,18,14,15,2.50
2015,09,18,14,16,1.30
2015,09,18,14,17,3.40
2015,09,18,14,18,2.50
2015,09,18,14,19,2.00
2015,09,18,14,20,1.60
2015,09,18,14,21,1.90
2015,09,18,14,22,3.90
2015,09,18,14,23,3.40
2015,09,18,14,24,3.20
2015,09,18,14,25,1.20
2015,09,18,14,26,1.10
2015,09,18,14,27,2.70
2015,09,18,14,28,4.20
2015,09,18,14,29,2.20
2015,09,18,14,30,1.80
2015,09,18,14,31,3.20
2015,09,18,14,32,6.40
2015,09,18,14,33,5.50
2015,09,18,14,34,5.60
2015,09,18,14,35,4.40
2015,09,18,14,36,2.90
2015,09,18,14,37,2.20
2015,09,18,14,38,5.10
2015,09,18,14,39,5.20
2015,09,18,14,40,4.60
2015,09,18,14,41,2.70
2015,09,18,14,42,5.70
2015,09,18,14,43,3.70
2015,09,18,14,44,2.80
2015,09,18,14,45,3.80
2015,09,18,14,46,3.10
2015,09,18,14,47,4.10
2015,09,18,14,48,3.20
2015,09,18,14,49,5.00
2015,09,18,14,50,2.40
2015,09,18,14,51,3.10
2015,09,18,14,52,7.60
2015,09,18,14,53,4.20
2015,09,18,14,54,3.10
2015,09,18,14,55,3.90
2015,09,18,14,56,5.60
2015,09,18,14,57,4.00
2015,09,18,14,58,3.00
2015,09,18,14,59,4.20
2015,09,18,15,00,3.90
2015,09,18,15,01,4.30
2015,09,18,15,02,3.30
2015,09,18,15,03,5.90
2015,09,18,15,04,4.10
2015,09,18,15,05,3.90
2015,09,18,15,06,3.50
2015,09,18,15,07,4.30
2015,09,18,15,08,4.00
2015,09,18,15,09,2.50
2015,09,18,15,10,0.80
2015,09,18,15,11,1.90
2015,09,18,15,12,3.10
2015,09,18,15,13,3.50
2015,09,18,15,14,3.40
2015,09,18,15,15,2.50
2015,09,18,15,16,3.50
2015,09,18,15,17,1.40
2015,09,18,15,18,3.20
2015,09,18,15,19,1.20
2015,09,18,15,20,1.70
2015,09,18,15,21,3.70
2015,09,18,15,22,11.20
2015,09,18,15,23,5.80
2015,09,18,15,24,2.10
2015,09,18,15,25,5.20
2015,09,18,15,26,6.50
2015,09,18,15,27,6.30
2015,09,18,15,28,5.60
2015,09,18,15,29,5.10
2015,09,18,15,30,1.90
2015,09,18,15,31,3.40
2015,09,18,15,32,6.60
2015,09,18,15,33,7.60
2015,09,18,15,34,6.20
2015,09,18,15,35,3.40
2015,09,18,15,36,5.90
2015,09,18,15,37,3.50
2015,09,18,15,38,4.90
2015,09,18,15,39,6.40
2015,09,18,15,40,4.30
2015,09,18,15,41,7.10
2015,09,18,15,42,2.70
2015,09,18,15,43,2.90
2015,09,18,15,44,3.00
2015,09,18,15,45,3.00
2015,09,18,15,46,5.10
2015,09,18,15,47,5.90
2015,09,18,15,48,10.80
2015,09,18,15,49,9.60
2015,09,18,15,50,8.60
2015,09,18,15,51,6.00
2015,09,18,15,52,4.50
2015,09,18,15,53,4.30
2015,09,18,15,54,6.40
2015,09,18,15,55,1.50
2015,09,18,15,56,2.50
2015,09,18,15,57,1.30
2015,09,18,15,58,1.70
2015,09,18,15,59,1.80
2015,09,18,16,00,3.90
2015,09,18,16,01,1.60
2015,09,18,16,02,1.00
2015,09,18,16,03,3.10
2015,09,18,16,04,1.50
2015,09,18,16,05,1.70
2015,09,18,16,06,3.90
2015,09,18,16,07,2.10
2015,09,18,16,08,4.30
2015,09,18,16,09,2.90
2015,09,18,16,10,2.80
2015,09,18,16,11,5.40
2015,09,18,16,12,2.00
2015,09,18,16,13,2.50
2015,09,18,16,14,1.00
2015,09,18,16,15,3.40
2015,09,18,16,16,2.20
2015,09,18,16,17,4.40
2015,09,18,16,18,4.10
2015,09,18,16,19,1.50
2015,09,18,16,20,2.50
2015,09,18,16,21,4.10
2015,09,18,16,22,2.80
2015,09,18,16,23,1.10
2015,09,18,16,24,0.30
2015,09,18,16,25,0.90
2015,09,18,16,26,2.50
2015,09,18,16,27,1.30
2015,09,18,16,28,1.70
2015,09,18,16,29,1.30
2015,09,18,16,30,1.60
2015,09,18,16,31,5.30
2015,09,18,16,32,5.90
2015,09,18,16,33,4.30
2015,09,18,16,34,5.60
2015,09,18,16,35,5.90
2015,09,18,16,36,4.10
2015,09,18,16,37,2.10
2015,09,18,16,38,3.30
2015,09,18,16,39,3.50
2015,09,18,16,40,1.90
2015,09,18,16,41,9.00
2015,09,18,16,42,6.20
2015,09,18,16,43,7.70
2015,09,18,16,44,3.40
2015,09,18,16,45,5.70
2015,09,18,16,46,6.40
2015,09,18,16,47,8.10
2015,09,18,16,48,5.00
2015,09,18,16,49,2.60
2015,09,18,16,50,3.60
2015,09,18,16,51,6.80
2015,09,18,16,52,8.60
2015,09,18,16,53,5.30
2015,09,18,16,54,2.70
2015,09,18,16,55,6.20
2015,09,18,16,56,7.70
2015,09,18,16,57,2.80
2015,09,18,16,58,7.00
2015,09,18,16,59,4.20
2015,09,18,17,00,4.00
2015,09,18,17,01,7.00
2015,09,18,17,02,6.50
2015,09,18,17,03,4.40
2015,09,18,17,04,7.50
2015,09,18,17,05,3.90
2015,09,18,17,06,8.20
2015,09,18,17,07,5.70
2015,09,18,17,08,2.20
2015,09,18,17,09,2.70
2015,09,18,17,10,4.20
2015,09,18,17,11,3.60
2015,09,18,17,12,3.70
2015,09,18,17,13,2.50
2015,09,18,17,14,1.70
2015,09,18,17,15,2.20
2015,09,18,17,16,1.70
2015,09,18,17,17,1.30
2015,09,18,17,18,3.40
2015,09,18,17,19,3.30
2015,09,18,17,20,0.70
2015,09,18,17,21,2.50
2015,09,18,17,22,2.70
2015,09,18,17,23,2.10
2015,09,18,17,24,5.30
2015,09,18,17,25,5.10
2015,09,18,17,26,5.40
2015,09,18,17,27,2.30
2015,09,18,17,28,4.60
2015,09,18,17,29,4.60
2015,09,18,17,30,7.80
2015,09,18,17,31,6.40
2015,09,18,17,32,10.70
2015,09,18,17,33,5.10
2015,09,18,17,34,3.40
2015,09,18,17,35,3.40
2015,09,18,17,36,6.40
2015,09,18,17,37,6.60
2015,09,18,17,38,5.50
2015,09,18,17,39,6.00
2015,09,18,17,40,8.60
2015,09,18,17,41,4.10
2015,09,18,17,42,5.10
2015,09,18,17,43,4.10
2015,09,18,17,44,2.70
2015,09,18,17,45,8.10
2015,09,18,17,46,7.10
2015,09,18,17,47,7.10
2015,09,18,17,48,7.20
2015,09,18,17,49,6.40
2015,09,18,17,50,4.30
2015,09,18,17,51,5.00
2015,09,18,17,52,5.20
2015,09,18,17,53,4.40
2015,09,18,17,54,8.50
2015,09,18,17,55,6.80
2015,09,18,17,56,6.60
2015,09,18,17,57,9.00
2015,09,18,17,58,7.20
2015,09,18,17,59,2.50
2015,09,18,18,00,6.30
2015,09,18,18,01,4.00
2015,09,18,18,02,2.80
2015,09,18,18,03,5.90
2015,09,18,18,04,4.60
2015,09,18,18,05,3.80
2015,09,18,18,06,5.30
2015,09,18,18,07,9.70
2015,09,18,18,08,7.00
2015,09,18,18,09,4.20